This is the latest recevied weather packets stored in our database for station/object KF0TNT. If no packets are shown the sender has not sent any weather packets the latest 10 day(s).
| Time | Temp. | Humidity | Pressure | Rain* | Wind** | Luminosity | Snow |
|---|---|---|---|---|---|---|---|
| 1777476021 | 3.33° C | 86% | 1022.1 hPa | 0 mm | - | 243 W/m² | - |
| 1777475716 | 3.33° C | 87% | 1022 hPa | 0 mm | - | 227 W/m² | - |
| 1777475413 | 3.33° C | 86% | 1022 hPa | 0 mm | - | 268 W/m² | - |
| 1777475108 | 3.33° C | 89% | 1022.2 hPa | 0 mm | - | 158 W/m² | - |
| 1777474805 | 2.78° C | 89% | 1022 hPa | 0 mm | - | 121 W/m² | - |
| 1777474501 | 2.78° C | 90% | 1022 hPa | 0 mm | - | 186 W/m² | - |
| 1777474197 | 2.78° C | 91% | 1022.1 hPa | 0 mm | - | 222 W/m² | - |
| 1777473895 | 2.78° C | 92% | 1022.1 hPa | 0 mm | - | 217 W/m² | - |
| 1777473592 | 2.78° C | 92% | 1022 hPa | 0 mm | - | 193 W/m² | - |
| 1777473288 | 2.22° C | 94% | 1022.3 hPa | 0 mm | - | 191 W/m² | - |
| 1777472984 | 2.22° C | 94% | 1022.2 hPa | 0 mm | - | 154 W/m² | - |
| 1777472681 | 2.22° C | 94% | 1022.3 hPa | 0 mm | - | 120 W/m² | - |
| 1777472377 | 2.22° C | 95% | 1022.3 hPa | 0 mm | - | 93 W/m² | - |
| 1777472076 | 1.67° C | 95% | 1022.2 hPa | 0 mm | - | 89 W/m² | - |
| 1777471770 | 1.67° C | 95% | 1022.3 hPa | 0 mm | - | 62 W/m² | - |
| 1777471467 | 1.67° C | 95% | 1022.6 hPa | 0 mm | - | 70 W/m² | - |
| 1777471164 | 1.67° C | 94% | 1022.3 hPa | 0 mm | - | 71 W/m² | - |
| 1777470861 | 1.67° C | 94% | 1022.5 hPa | 0 mm | - | 38 W/m² | - |
| 1777470558 | 1.67° C | 94% | 1022.6 hPa | 0 mm | - | 63 W/m² | - |
| 1777470254 | 1.67° C | 94% | 1022.5 hPa | 0 mm | - | 43 W/m² | - |
| 1777469950 | 1.67° C | 94% | 1022.3 hPa | 0 mm | - | 25 W/m² | - |
| 1777469646 | 1.67° C | 94% | 1022.5 hPa | 0 mm | - | 33 W/m² | - |
| 1777469341 | 1.67° C | 94% | 1022.2 hPa | 0 mm | - | 34 W/m² | - |
| 1777469037 | 1.67° C | 94% | 1022.2 hPa | 0 mm | - | 26 W/m² | - |
| 1777468732 | 1.67° C | 94% | 1022.2 hPa | 0 mm | - | 23 W/m² | - |
* Rain latest hour (hover to see other rain measurements)
** Current wind speed in m/s (hover to see current wind gust speed)